Regional Weather Roundup
Issued by NWS

Home | Current Version | Previous Version | Text Only | Print | Product List | Glossary Off
Versions: 1 2 3 4 5 6 7 8 9 10 11 12 13 14 15 16 17 18 19 20 21 22 23 24 25 26 27 28 29 30 31 32 33 34 35 36 37 38 39 40 41 42 43 44 45 46 47 48 49 50

000
ASUS43 KLMK 040510
RWRKY
KENTUCKY REGIONAL WEATHER ROUNDUP
NATIONAL WEATHER SERVICE LOUISVILLE KY
100 AM EDT MON MAY 04 2015

NOTE "FAIR" INDICATES FEW OR NO CLOUDS BELOW 12,000 FEET
WITH NO SIGNIFICANT WEATHER AND/OR OBSTRUCTIONS TO VISIBILITY.

KYZ001>023-026-027-061>063-070>075-040600-
WESTERN AND SOUTH CENTRAL KENTUCKY

CITY           SKY/WX    TMP DP  RH WIND       PRES   REMARKS
PADUCAH        PTCLDY    66  48  52 S7        30.04F
HENDERSON      CLEAR     63  48  59 S8        30.05F
OWENSBORO      CLEAR     62  52  70 S6        30.08S
HOPKINSVILLE   CLEAR     64  50  60 S6        30.09F
BOWLING GREEN  CLEAR     61  50  67 CALM      30.12S
GLASGOW        CLEAR     60  50  69 CALM      30.13R
$$

KYZ024-025-028>034-038-045-046-053-040600-
NORTH CENTRAL KENTUCKY

CITY           SKY/WX    TMP DP  RH WIND       PRES   REMARKS
LOUISVILLE/SDF PTCLDY    66  50  56 SE3       30.08F
LOUISVILLE/LOU CLEAR     65  50  58 CALM      30.09F
FORT KNOX      CLEAR     58  49  72 CALM      30.08F
$$

KYZ035>037-039>044-047>052-055>060-089>105-040600-
NORTHEAST KENTUCKY

CITY           SKY/WX    TMP DP  RH WIND       PRES   REMARKS
LEXINGTON      CLEAR     59  48  67 SE7       30.12F
COVINGTON      CLEAR     61  46  57 S6        30.09S
FRANKFORT      CLEAR     59  48  67 CALM      30.10S
$$

KYZ054-064>069-076>088-106>120-040600-
SOUTHEAST KENTUCKY

CITY           SKY/WX    TMP DP  RH WIND       PRES   REMARKS
JACKSON        CLEAR     65  43  44 S3        30.16S
LONDON         CLEAR     57  49  74 CALM      30.16S
SOMERSET       PTCLDY    54  48  82 CALM      30.16S
MIDDLESBORO    CLEAR     52  49  88 CALM      30.20R
MONTICELLO     CLEAR     54  51  89 CALM      30.18S
$$




USA.gov is the U.S. government's official web portal to all federal, state and local government web resources and services.